THORAD DELTA 1 DEB, 10990

Orbit data source: Space-Track

THORAD DELTA 1 DEB, 10990 is space debris in SSO originally from a launch on Fri, 15 Nov 1974 UTC launched from the Air Force Western Test Range (AFWTR). Debris objects in space refer to the collection of defunct objects orbiting the Earth. Examples of debris include non-operational satellites, rocket bodies, and fragments generated from explosions, collisions, or faulty payload assembly.

Loading next visibility...
Identifier
10990, 1974-089EK
Orbit
SSO
Country
Flag of USUS
Related business
Manufacturer
Unknown
Mission
Spacecraft
Bus & Motor
Unknown
Mass
Unknown
Launch date (UTC)
1974-11-15 (51 years ago)
Launch vehicle
Unknown
Launch site
Air Force Western Test Range (AFWTR)
Object type
Payload
Rocket body
Debris
Shape & HBR
Unknown shape, 0.1 m
Radar Cross Section
Small (<0.1 m²)

Expand to show TLE details & history
Last TLE update: 22 hours ago

TLE from 22 hours ago
0 THORAD DELTA 1 DEB
1 10990U 74089EK  25293.92948978 -.00000005  00000-0  19700-3 0  9990
2 10990 101.0462 295.8522 0074472 167.0634 223.1578 12.65085880351054
Epoch: 2025-10-20T22:18Z
TLE epoch observation values (Epoch: 2025-10-20T22:18:27.916Z)
Latitude
29.0843°
Longitude
-74.59196°
Altitude
1,447.858 km
Speed
7.121 km/s
True Right ascension
19h 18m 35s
True Declination
28° 57' 05"
Sunlit
Object was in daylight at epoch
Visualization orbit readout
Latitude
Unknown
Longitude
Unknown
Altitude
Unknown
Speed
Unknown
Apparent Right ascension
Unknown
Apparent Declination
Unknown
Sunlit
N/A
Visualization observer readout
Local Sidereal Time
15:33:27
Azimuth
Unknown
Elevation
Unknown
Doppler factor
Unknown
Orbital elements
Apogee altitude
1,457.431 km
Perigee altitude
1,341.587 km
Semi-major axis
7,777.646 km
Eccentricity
0.00745
Inclination
101.0462°
RAAN
295.8522°
Arg. of periapsis
167.0634°
True anomaly
222.57802°
Mean anomaly
223.1578°
Eccentric anomaly
222.86752°
Mean motion
3.16425 °/min
Orbital period
113.77 mins
BSTAR
0.000197
Loading maneuver chart data...
Computing Atmospheric mass density...

Documentation

Showing up to 5 results
|